Flag for Belgium Weather past 2 weeks in Leuven, Belgium

Now
39 °F

Passing clouds.


Feels Like: 34 °F
Forecast: 36 / 48 °F
Wind: 7 mph from Northwest

Location: Brussels National Airport

Current Time: Mar 5, 2015 at 2:05:18 AM

Latest Report: Mar 5, 2015 at 1:20 AM


Visibility: N/A

Pressure: 30.60 "Hg

Humidity: 75%

Dew point: 32 °F

Location of LeuvenLocation

Historic Weather in Leuven — Graph

°F

Leuven temperature yesterday

Maximum temperature yesterday: 45 °F (at 12:20 PM)
Minimum temperature yesterday: 36 °F (at 2:50 AM)
Average temperature yesterday: 40 °F

Past Weeks' High & Low Weather Summary

 TemperatureHumidityPressure
High50 °F (Feb 23, 1:50 PM)100% (Feb 25, 10:20 PM)30.74 "Hg (Feb 25, 10:20 PM)
Low28 °F (Feb 18, 6:20 AM)50% (Feb 28, 3:20 PM)29.33 "Hg (Feb 23, 7:50 AM)
Average40 °F81%29.92 "Hg
* Reported Feb 18 12:20 AM — Mar 5 12:50 AM, Leuven, Weather by CustomWeather, © 2015

Note: Actual official high and low records may vary slightly from our data, if they occured in-between our weather recording intervals... More about our weather records

Advertising

Leuven weather history for previous 24 hours

 ConditionsComfort  
Time TempWeatherWind HumidityBarometerVisibility
12:50 AM
Thu, Mar 5
39 °FPassing clouds.7 mph81%30.57 "HgN/A
12:20 AM39 °FPassing clouds.8 mph81%30.57 "HgN/A
11:50 PM
Wed, Mar 4
39 °FPassing clouds.7 mph81%30.57 "HgN/A
11:20 PM37 °FPassing clouds.7 mph87%30.57 "HgN/A
10:50 PM39 °FPassing clouds.7 mph75%30.54 "HgN/A
10:20 PM37 °FClear.7 mph81%30.54 "Hg10 mi
9:50 PM39 °FClear.8 mph75%30.51 "Hg10 mi
9:20 PM39 °FClear.8 mph75%30.51 "Hg10 mi
8:50 PM41 °FPassing clouds.10 mph70%30.51 "HgN/A
8:20 PM41 °FPassing clouds.10 mph70%30.48 "HgN/A
7:50 PM41 °FPassing clouds.12 mph70%30.48 "HgN/A
7:20 PM41 °FPassing clouds.10 mph70%30.45 "HgN/A
6:50 PM43 °FPassing clouds.13 mph66%30.45 "HgN/A
6:20 PM43 °FScattered clouds.14 mph66%30.42 "HgN/A
5:50 PM43 °FScattered clouds.14 mph66%30.42 "HgN/A
5:20 PM45 °FScattered clouds.16 mph61%30.39 "HgN/A
4:50 PM45 °FPartly sunny.13 mph66%30.39 "HgN/A
4:20 PM43 °FPartly sunny.14 mph71%30.39 "HgN/A
3:50 PM43 °FPartly sunny.14 mph71%30.36 "HgN/A
3:20 PM43 °FPartly sunny.15 mph71%30.36 "HgN/A
2:50 PM43 °FPartly sunny.16 mph66%30.36 "HgN/A
2:20 PM43 °FScattered showers. Partly sunny.17 mph66%30.33 "HgN/A
1:50 PM45 °FPartly sunny.16 mph61%30.33 "HgN/A
1:20 PM45 °FPartly sunny.15 mph66%30.33 "HgN/A
12:50 PM45 °FPartly sunny.16 mph66%30.33 "HgN/A
12:20 PM45 °FPartly sunny.15 mph66%30.30 "HgN/A
11:50 AM43 °FScattered clouds.16 mph71%30.30 "HgN/A
11:20 AM43 °FPassing clouds.15 mph71%30.30 "HgN/A
10:50 AM43 °FPassing clouds.13 mph71%30.27 "HgN/A
10:20 AM41 °FPassing clouds.13 mph76%30.27 "HgN/A
9:50 AM39 °FPassing clouds.15 mph75%30.27 "HgN/A
9:20 AM37 °FSunny.12 mph81%30.27 "Hg10 mi
8:50 AM37 °FSunny.12 mph81%30.24 "Hg10 mi
8:20 AM36 °FSunny.14 mph87%30.24 "Hg10 mi
7:50 AM36 °FSunny.13 mph81%30.21 "Hg10 mi
7:20 AM36 °FSunny.13 mph81%30.21 "Hg10 mi
6:50 AM36 °FClear.13 mph81%30.21 "Hg10 mi
6:20 AM36 °FClear.14 mph81%30.21 "Hg10 mi
5:50 AM36 °FClear.13 mph81%30.18 "Hg10 mi
5:20 AM36 °FClear.12 mph81%30.18 "Hg10 mi
4:50 AM36 °FClear.13 mph81%30.18 "Hg10 mi
4:20 AM36 °FClear.12 mph81%30.18 "Hg10 mi
3:50 AM36 °FClear.10 mph81%30.18 "Hg10 mi
3:20 AM36 °FClear.12 mph81%30.18 "Hg10 mi
2:50 AM36 °FClear.10 mph87%30.18 "Hg10 mi
2:20 AM37 °FClear.12 mph81%30.18 "Hg10 mi
Weather by CustomWeather, © 2015

See weather overviewHow to use our weather pages